sat.trackr.live / text

‹ back to catalog

ONEWEB-0680

NORAD 56716 · 2023-068G

PAYLOAD ACTIVE UNKNOWN

§ Identity

Operator
Country
UK
Launch date
2023-05-20
Launch site
AFWTR
Launch vehicle
Mass (kg)
RCS (m²)

Purposes: comms

External: N2YO · Heavens-Above · Gunter

§ Orbital elements

Epoch: 2026-05-25T00:12:14.096736Z

Period
108.94 min
Inclination
87.9261°
Eccentricity
0.0002388
Mean motion
13.21824234 rev/d
Perigee alt
1,176.0 km
Apogee alt
1,179.6 km
Semi-major
7,555.9 km
B*
4.9081e-5
RAAN
248.5809°
Arg perigee
112.1743°
Mean anomaly
247.9645°
Rev number
14,803

§ Raw data

ONEWEB-06801 56716U 23068G   26145.00849649  .00000033  00000+0  49081-4 0  99932 56716  87.9261 248.5809 0002388 112.1743 247.9645 13.21824234148039

JSON: /api/v1/satellites/56716 · /tle

For live sub-satellite position, see the globe view (requires WebGL).

§ Visibility from observer

Set your observer location to see the next 7 days of passes ≥ 10°. The values pass through the URL so the page stays shareable.

No JS? Fill the form by hand. The geolocation button needs JavaScript.